TROLLHATTAN PRIVATE current weather conditions

sailwx.info

Wind from 160 at 6 knots

Air temperature -0.0° C
Dewpoint -0.0° C

Last reported at 2015-Mar-03 06:50 UTC.
Time now 2015-Mar-03 07:28 UTC

Location: N 58°19' E 012°21'.
View on Google Maps.

See reports from other nearby stations

  
Tides and Currents Weather Stations Pressure Air Temp Water Temp Dewpoint Dewpoint Depression Visibility Wind Speed Wind Dir Waves Ship Positions
date/time (UTC)wind fromknots sea level pressurealtimeterstation pressurevisibilityair tempwater tempwave heightnotes
2015-Mar-03 06:50 160 6 -0.0
2015-Mar-03 06:20 180 5 -1.0
2015-Mar-03 05:50 170 4 4.3-0.0 Patches of fog.
2015-Mar-03 05:20 220 4 5.4-0.0
2015-Mar-03 04:50 220 4 4.3-0.0 Mist.
2015-Mar-02 17:20 4.3 3.0 Rain.
2015-Mar-02 16:50 240 3 4.3 3.0 Rain.
2015-Mar-02 16:20 160 3 4.3 3.0 Light rain.
2015-Mar-02 15:50 4.3 4.0 Light rain.
2015-Mar-02 15:20 260 4 4.3 4.0 Light rain.
2015-Mar-02 14:50 220 4 4.3 4.0 Light rain.
2015-Mar-02 14:20 150 4 5.4 5.0 Light rain.
2015-Mar-02 13:50 160 3 5.4 5.0 Light rain.
2015-Mar-02 13:20 130 3 5.4 5.0
2015-Mar-02 12:50 160 7 5.4 5.0
2015-Mar-02 12:20 160 8 5.4 5.0
2015-Mar-02 11:50 160 10 5.4 5.0
2015-Mar-02 11:20 140 8 5.4 5.0
2015-Mar-02 10:50 160 8 5.4 5.0
2015-Mar-02 10:20 150 9 5.4 5.0
2015-Mar-02 09:50 150 8 5.4 4.0
2015-Mar-02 09:20 160 9 5.4 4.0
2015-Mar-02 08:50 170 9 5.4 4.0
2015-Mar-02 08:20 180 10 5.4 4.0
2015-Mar-02 07:50 180 7 5.4 4.0
2015-Mar-02 07:20 180 10 5.4 4.0
2015-Mar-02 05:20 180 10 4.9 4.0 Mist.
2015-Mar-02 04:50 190 9 5.4 4.0
2015-Mar-01 19:20 180 12 5.4 4.0 Rain.
2015-Mar-01 18:50 200 9 5.4 5.0 Light rain.
2015-Mar-01 18:20 170 10 4.9 4.0 Rain.
2015-Mar-01 17:50 170 11 5.4 4.0 Rain.
2015-Mar-01 17:20 170 14 3.8 4.0 Rain.
2015-Mar-01 16:50 170 12 0.5 3.0 Light rain showers.
2015-Mar-01 16:20 170 12 5.4 3.0
2015-Mar-01 15:50 170 13 4.3 2.0
2015-Mar-01 15:20 170 12 5.4 2.0
2015-Mar-01 14:20 170 14 5.4 2.0 Light snow rain.
2015-Mar-01 13:50 170 15 5.4 2.0 Light rain.